SCP
0 0 0 0 0 0 0 0 0 0 0 0 0 0 0 0 0 0 0 0 0 0 0 0 0 0 0 0 0 0 0 0 0 0 0 0 0 0 0 0 0 0 0 0
0 0 0 0 0 0 0 0 0 0 0 0 0 0 0 0 0 0 0 0 0 0 0 -0 0 0 0 0 0 0 0 0 0 0 0 0 0 0 0 0 0 0 0 0
0 0 0 0 0 0 0 0 0 0 0 0 0 0 0 0 0 0 0 0 0 0 0 0 0 0 0 0 0 0 0 0 0 0 0 0 0 0 0 0 0 0 0 0
0 0 0 0 0 0 0 0 0 0 0 0 0 0 0 0 0 0 0 0 0 0 0 0 0 0 0 0 0 0 0 0 0 0 0 0 0 0 0 0 0 0 0 0
0 0 0 0 0 0 0 0 0 0 0 0 0 0 0 0 0 0 0 0 0 0 0 0 0 0 0 0 0 0 0 0 0 0 0 0 0 0 0 0 0 0 0 0
0 0 0 0 0 0 0 0 0 0 0 0 0 0 0 0 0 0 0 0 0 0 0 0 0 0 0 0 0 0 0 0 0 0 0 0 0 0 0 0 0 0 0 0
0 0 0 0 0 0 0 0 0 0 0 0 0 0 0 0 0 0 0 0 0 0 0 0 0 0 0 0 0 0 0 0 0 0 0 0 0 0 0 0 0 0 0 0
0 0 0 0 0 0 0 0 0 0 0 0 0 0 0 0 0 0 0 0 0 0 0 0 0 0 0 0 0 0 0 0 0 0 0 0 0 0 0 0 0 0 0 0
0 0 0 0 0 0 0 0 0 0 0 0 0 0 0 0 0 0 0 0 0 0 0 0 0 0 0 0 0 0 0 0 0 0 0 0 0 0 0 0 0 0 0 0
0 0 0 0 0 0 0 0 0 0 0 0 0 0 0 0 0 0 0 0 0 0 0 0 0 0 0 0 0 0 0 0 0 0 0 0 0 0 0 0 0 0 0 0
0 0 0 0 0 0 0 0 0 0 0 0 0 0 0 0 0 0 0 0 0 0 0 0 0 0 0 0 0 0 0 0 0 0 0 0 0 0 0 0 0 0 0 0
0 0 0 0 0 0 0 0 0 0 0 0 0 0 0 0 0 0 0 0 0 0 0 0 0 0 0 0 0 0 0 0 0 0 0 0 0 0 0 0 0 0 0 0
0 0 0 0 0 0 0 0 0 0 0 0 0 0 0 0 0 0 0 0 0 0 0 0 0 0 0 0 0 0 0 0 0 0 0 0 0 0 0 0 0 0 0 0
0 0 0 0 0 0 0 0 0 0 0 0 0 0 0 0 0 0 0 0 0 0 0 0 0 0 0 0 0 0 0 0 0 0 0 0 0 0 0 0 0 0 0 0
0 0 0 0 0 0 0 0 0 0 0 0 0 0 0 0 0 0 0 0 0 0 0 0 0 0 0 0 0 0 0 0 0 0 0 0 0 0 0 0 0 0 0 0
0 0 0 0 0 0 0 0 0 0 0 0 0 0 0 0 0 0 0 0 0 0 0 0 0 0 0 0 0 0 0 0 0 0 0 0 0 0 0 0 0 0 0 0
0 0 0 0 0 0 0 0 0 0 0 0 0 0 0 0 0 0 0 0 0 0 0 0 0 0 0 0 0 0 0 0 0 0 0 0 0 0 0 0 0 0 0 0
0 0 0 0 0 0 0 0 0 0 0 0 0 0 0 0 0 0 0 0 0 0 0 0 0 0 0 0 0 0 0 0 0 0 0 0 0 0 0 0 0 0 0 0
0 0 0 0 0 0 0 0 0 0 0 0 0 0 0 0 0 0 0 0 0 0 0 0 0 0 0 0 0 0 0 0 0 0 0 0 0 0 0 0 0 0 0 0
0 0 0 0 0 0 0 0 0 0 0 0 0 0 0 0 0 0 0 0 0 0 0 0 0 0 0 0 0 0 0 0 0 0 0 0 0 0 0 0 0 0 0 0
0 0 0 0 0 0 0 0 0 0 0 0 0 0 0 0 0 0 0 0 0 0 0 0 0 0 0 0 0 0 0 0 0 0 0 0 0 0 0 0 0 0 0 0
0 0 0 0 0 0 0 0 0 0 0 0 0 0 0 0 0 0 0 0 0 0 0 0 0 0 0 0 0 0 0 0 0 0 0 0 0 0 0 0 0 0 0 0
0 0 0 0 0 0 0 0 0 0 0 0 0 0 0 0 0 0 0 0 0 0 0 0 0 0 0 0 0 0 0 0 0 0 0 0 0 0 0 0 0 0 0 0
0 0 0 0 0 0 0 0 0 0 0 0 0 0 0 0 0 0 0 0 0 0 0 0 0 0 0 0 0 0 0 0 0 0 0 0 0 0 0 0 0 0 0 0
0 0 0 0 0 0 0 0 0 0 0 0 0 0 0 0 0 0 0 0 0 0 0 0 0 0 0 0 0 0 0 0 0 0 0 0 0 0 0 0 0 0 0 0
0 0 0 0 0 0 0 0 0 0 0 0 0 0 0 0 0 0 0 0 0 0 0 0 0 0 0 0 0 0 0 0 0 0 0 0 0 0 0 0 0 0 0 0
Wind_Speed
6 7 8 7 6 3 2 4 5 5 4 5 11 13 9 6 6 8 9 10 11 12 12 12 14 16 17 18 19 19 19 18 15 13 13 13 13 12 11 11 15 15 16 16
6 9 6 4 2 3 4 5 5 6 6 5 10 9 7 6 6 7 8 10 11 13 13 13 15 16 16 17 18 18 18 17 16 14 12 12 13 11 11 12 13 15 16 15
9 6 4 4 5 3 3 1 1 6 6 6 9 9 9 6 4 5 6 8 11 12 13 13 14 15 15 16 17 16 18 17 16 16 12 12 10 10 10 12 12 15 16 15
8 4 3 5 6 4 1 2 2 8 9 6 10 6 12 9 4 3 7 10 12 13 12 12 13 15 15 15 15 16 17 16 16 16 14 16 13 12 14 12 12 16 16 15
6 4 5 5 4 4 4 2 3 7 7 4 8 8 7 9 6 2 7 11 12 13 12 12 13 14 14 14 14 15 16 15 16 16 16 15 13 12 12 13 15 15 14 14
5 3 4 4 2 1 2 3 4 4 5 7 4 7 3 6 2 3 8 11 13 13 12 12 12 13 13 13 14 14 15 15 16 16 16 15 16 16 16 17 16 14 12 13
4 3 3 3 3 1 3 5 4 4 5 1 4 5 3 8 4 5 9 12 13 13 12 12 13 14 14 14 15 14 15 15 16 16 16 16 16 17 16 16 15 15 13 13
1 3 5 5 5 5 5 6 6 8 8 4 3 3 6 7 3 4 8 11 12 13 12 11 12 13 13 14 15 15 15 15 16 16 16 15 16 12 12 15 15 14 13 13
5 2 3 4 3 3 2 2 4 6 6 8 4 4 6 4 2 5 9 12 14 13 12 11 12 13 13 14 14 14 15 15 16 16 16 15 16 15 15 16 15 13 14 14
4 3 2 2 3 4 4 2 2 4 8 9 7 2 2 5 2 7 11 14 14 13 11 11 12 12 13 13 13 14 14 15 15 16 15 13 15 15 15 15 16 16 17 17
2 4 1 2 1 3 1 2 1 1 4 7 10 4 7 4 4 8 12 13 14 12 11 11 12 12 13 13 13 14 14 15 15 16 16 16 15 15 15 14 16 16 16 17
2 4 3 1 3 1 1 2 1 5 4 5 8 2 8 3 4 8 12 13 12 11 11 12 12 13 13 14 14 14 14 15 15 15 15 15 15 15 15 15 16 16 17 16
0 3 5 3 4 4 2 2 1 1 4 5 7 1 6 1 6 9 12 13 11 11 12 13 13 13 13 13 13 14 14 15 15 15 15 15 15 15 15 16 16 16 16 17
1 3 5 7 5 1 1 3 3 4 5 6 7 7 3 6 9 12 13 12 11 12 13 13 13 13 13 13 13 14 15 15 15 15 15 15 15 15 15 15 15 16 16 16
2 4 3 5 2 3 5 5 5 7 7 7 6 7 9 7 10 12 13 11 12 14 14 14 14 13 14 14 14 14 15 15 15 15 15 15 15 15 15 15 15 16 16 16
1 2 3 4 1 3 6 7 7 7 6 8 8 8 3 7 9 12 12 10 12 13 13 13 14 14 14 14 14 15 15 15 15 14 14 15 15 15 15 16 15 16 16 16
1 2 4 4 2 6 5 4 8 5 5 5 6 4 5 10 12 13 9 9 12 13 13 13 13 13 13 14 14 15 15 15 14 14 14 15 15 15 16 16 16 16 15 15
2 2 1 5 5 5 3 2 4 4 4 4 5 4 6 9 10 5 4 8 11 11 12 12 12 12 13 13 13 13 14 14 14 14 14 15 15 16 16 16 16 16 14 14
2 2 1 2 5 7 4 5 5 4 3 3 2 3 6 8 9 2 3 6 8 9 10 10 11 12 13 12 13 13 14 14 14 15 15 16 16 17 17 17 16 15 14 14
3 2 3 2 4 6 3 6 4 3 3 5 2 4 6 8 8 5 4 6 7 8 9 10 11 12 12 12 13 13 14 14 15 16 17 17 16 16 16 16 16 14 14 13
4 4 4 5 6 6 5 7 6 3 2 6 2 2 4 4 4 5 5 6 7 9 10 10 11 11 11 12 12 13 14 15 16 16 17 17 16 16 16 15 14 14 13 13
6 6 6 5 6 5 10 9 6 2 6 4 2 0 1 2 2 4 5 7 8 9 10 11 11 12 11 11 12 14 15 16 16 16 16 16 16 15 13 15 14 14 13 13
7 6 4 8 2 4 7 4 4 6 6 4 3 2 1 0 2 3 5 6 7 9 10 10 11 12 11 11 12 14 15 16 16 16 16 16 16 14 14 14 14 13 12 10
5 3 5 6 5 5 7 7 6 6 6 5 5 4 3 2 2 3 4 6 7 8 9 10 11 12 12 13 13 13 14 15 16 17 16 15 15 14 14 12 11 11 11 11
5 8 6 7 3 6 8 8 9 8 8 8 6 5 4 3 2 2 3 5 6 7 8 9 9 11 13 14 13 13 14 15 16 16 15 14 13 14 13 12 11 12 11 13
9 10 9 5 8 8 9 12 11 10 8 8 7 6 5 3 2 1 3 4 6 7 8 9 10 11 13 13 13 14 14 15 16 14 14 12 12 11 11 11 11 14 15 18
Wind_Direction
31 63 51 22 359 16 96 133 119 91 94 99 123 133 132 122 88 63 46 33 24 18 15 14 9 8 4 2 359 356 354 353 353 349 343 341 339 339 339 340 339 339 339 339
95 59 24 5 40 131 133 132 117 113 110 116 140 141 138 119 80 54 36 25 15 5 4 6 5 5 2 359 356 352 352 350 352 347 339 336 331 333 335 335 334 336 336 337
82 54 13 53 73 124 121 4 180 156 130 143 156 176 178 151 117 75 44 24 15 6 358 358 359 360 359 359 355 350 349 346 349 345 340 336 335 334 338 337 334 334 333 333
76 50 44 61 49 351 148 30 239 174 185 186 209 248 175 178 166 59 28 18 9 2 355 355 355 357 357 356 353 348 347 346 348 346 346 343 341 339 337 335 330 330 331 331
85 41 35 43 26 348 2 359 228 203 222 218 204 260 145 176 209 11 14 8 2 357 352 351 355 354 354 354 352 348 346 347 349 348 347 343 341 338 333 334 332 333 331 331
87 66 23 359 328 323 295 169 139 174 214 246 189 233 155 169 187 14 5 360 356 354 349 348 351 352 351 353 352 348 346 347 348 347 346 344 342 339 336 338 336 334 330 330
120 91 41 337 304 99 344 298 272 253 235 257 109 240 56 120 93 21 354 349 349 348 346 346 348 350 350 351 351 347 346 346 348 347 346 342 342 338 336 337 334 332 330 331
14 102 35 17 11 348 10 346 352 317 312 327 188 270 108 137 97 3 348 345 345 347 347 346 348 348 348 348 349 347 346 345 346 345 343 341 341 337 334 333 331 329 328 327
4 50 84 35 12 329 339 34 358 288 283 276 238 132 147 182 251 343 348 348 350 348 347 346 346 349 348 348 348 346 344 344 344 344 341 339 339 337 334 331 330 329 328 326
348 309 64 360 196 72 25 63 257 298 316 306 299 250 130 164 333 347 348 349 349 349 348 347 347 350 349 347 345 345 344 342 341 341 340 336 336 336 333 330 331 330 329 328
319 297 177 162 33 359 58 114 62 294 295 298 306 21 93 105 17 347 346 349 348 349 349 348 349 350 348 347 346 344 343 342 341 340 338 336 335 335 333 332 332 331 329 329
7 303 284 117 80 353 20 51 292 301 293 261 286 10 118 90 6 348 345 349 351 351 349 347 347 347 347 347 345 342 341 341 340 338 335 334 334 334 334 334 333 331 330 329
313 292 294 191 167 153 120 100 87 295 276 257 265 357 127 13 343 349 347 349 351 351 349 347 348 348 346 344 341 339 339 339 337 335 333 333 334 334 334 333 332 332 330 329
231 265 275 303 338 39 230 199 200 230 252 263 255 299 322 339 343 345 346 349 349 352 350 348 346 346 344 341 339 336 336 336 334 333 332 333 333 332 331 331 332 332 331 330
287 267 262 277 308 269 266 249 223 227 248 267 297 302 326 348 341 337 342 350 348 350 348 346 345 343 341 339 337 335 333 333 332 330 329 330 329 328 328 329 331 331 332 331
339 275 285 264 199 278 265 245 232 233 238 253 280 297 22 336 331 335 348 351 346 346 345 345 343 341 339 337 334 331 330 328 327 325 324 325 326 327 327 327 328 330 331 331
155 251 286 278 315 287 265 222 203 205 212 242 279 325 338 325 335 340 350 349 346 344 343 342 340 336 333 332 329 326 324 322 321 319 319 321 322 324 324 324 325 328 329 329
173 192 259 299 313 287 76 77 193 210 227 233 262 299 323 326 327 347 16 351 344 343 340 337 334 330 328 326 324 320 317 316 317 317 318 321 322 321 322 323 324 325 326 326
310 213 198 274 285 270 147 180 182 215 233 184 238 309 327 331 304 154 53 357 341 340 338 333 329 325 323 324 323 318 316 318 319 320 323 323 322 321 322 322 321 323 324 322
75 194 215 200 268 278 113 143 150 200 225 152 202 314 329 331 325 15 37 347 347 346 341 334 328 324 325 327 324 319 320 322 325 326 323 322 323 323 322 319 321 321 320 320
185 178 205 220 250 275 125 143 165 229 57 139 179 317 326 328 326 348 352 353 353 346 340 334 327 326 328 327 323 320 322 327 328 324 322 323 325 324 320 321 321 320 320 320
206 196 207 195 230 258 141 158 197 99 113 143 153 109 316 322 341 350 355 354 350 343 338 335 329 326 327 325 324 323 328 329 326 325 325 327 327 326 323 324 324 324 323 321
221 220 219 208 233 82 163 163 122 128 142 143 143 132 126 42 11 1 354 350 344 338 335 333 326 323 326 330 331 329 330 329 328 327 329 329 329 329 329 329 329 328 327 324
215 199 229 247 236 184 170 145 138 136 129 125 124 126 122 110 58 11 355 347 340 335 332 329 325 325 327 333 335 334 331 330 329 330 332 333 333 334 337 337 337 336 334 330
215 177 214 239 186 155 176 170 151 133 127 127 121 117 116 118 88 21 349 341 333 326 326 324 323 320 327 333 335 336 336 335 333 332 335 336 336 340 342 344 343 343 341 343
190 188 193 214 177 171 172 163 152 147 147 145 140 131 114 104 99 24 344 330 320 318 320 320 321 326 330 332 334 338 340 338 335 336 339 338 342 345 345 342 341 346 348 351